Regional Weather Roundup
Issued by NWS

Home | Current Version | Previous Version | Graphics & Text | Print | Product List | Glossary On
Versions: 1 2 3 4 5 6 7 8 9 10 11 12 13 14 15 16 17 18 19 20 21 22 23 24 25 26 27 28 29 30 31 32 33 34 35 36 37 38 39 40 41 42 43 44 45 46 47 48 49 50
000
ASUS43 KBIS 280310
RWRND

NORTH DAKOTA REGIONAL WEATHER ROUNDUP
NATIONAL WEATHER SERVICE BISMARCK ND
1000 PM CDT WED JUL 27 2016

NOTE: "FAIR" INDICATES FEW OR NO CLOUDS BELOW 12,000 FEET WITH NO
SIGNIFICANT WEATHER AND/OR OBSTRUCTIONS TO VISIBILITY.


NDZ001>003-009>011-017-280400-
NORTHWEST NORTH DAKOTA

CITY           SKY/WX    TMP DP  RH WIND       PRES   REMARKS
WILLISTON      CLOUDY    66  59  78 NE5       30.14R
MINOT          CLOUDY    69  60  73 NE5       30.13R
MINOT AFB      CLOUDY    67  57  69 E6        30.12R
$$

NDZ018>021-031>035-040>046-280400-
SOUTHWEST NORTH DAKOTA

CITY           SKY/WX    TMP DP  RH WIND       PRES   REMARKS
BISMARCK       CLOUDY    70  61  73 E8        30.12R
DICKINSON      CLOUDY    63  60  90 NE8       30.13R
GARRISON         N/A     67  60  78 E7        30.13R
HETTINGER ARPT CLEAR     64  58  80 E6        30.14R
$$

NDZ004>008-012>016-024-026-027-054-280400-
NORTHEAST NORTH DAKOTA

CITY           SKY/WX    TMP DP  RH WIND       PRES   REMARKS
GRAND FORKS    PTCLDY    67  57  70 N10       30.07R
GRND FRKS AFB  PTCLDY    66  57  74 N9        30.09R
DEVILS LAKE    PTCLDY    62  57  83 NE7       30.14R
$$

NDZ022-023-025-028>030-036>039-047>053-280400-
SOUTHEAST NORTH DAKOTA

CITY           SKY/WX    TMP DP  RH WIND       PRES   REMARKS
FARGO          CLOUDY    69  60  73 NW10      30.05R
JAMESTOWN      PTCLDY    63  60  90 N6        30.11R
$$





USA.gov is the U.S. government's official web portal to all federal, state and local government web resources and services.